Location: Eigenzell
(48.9898°N, 10.1741°E)
Time: 22:25:18
(UTC+00:00)

Daily predictions for brighter satellites

Satellite Brightness Start Highest point End
(mag) Time Altitude Azimuth Time Altitude Azimuth Time Altitude Azimuth
Cosmos-2242 4.5 15:51:32 10° SE 15:54:30 18° E 15:57:27 10° NE
Lacrosse 4 Rocket 2.1 15:51:03 10° NNW 15:55:02 34° NE 15:58:56 10° ESE
Cosmos 2058 Rocket 3.3 15:52:21 10° SSE 15:56:38 50° E 16:00:54 10° NNE
SL-08 RB Rocket 3.7 15:54:33 10° SSE 15:59:01 82° ENE 16:03:34 10° NNW
Cosmos 2279 Rocket 4.0 15:53:27 10° N 15:59:43 69° ENE 16:05:54 10° SSE
Cosmos 1269 Rocket 4.1 15:56:53 10° NNW 16:02:13 87° WSW 16:07:31 10° SSE
Cosmos 1606 Rocket 4.2 15:58:22 10° SSW 16:02:46 61° WNW 16:07:10 10° N
Cosmos 1726 Rocket 3.8 15:59:10 10° SSW 16:03:37 79° WNW 16:08:03 10° N
CZ-2D R/B 3.1 16:00:50 10° SSE 16:04:28 66° ENE 16:08:07 10° N
Cosmos 1812 4.0 16:06:58 10° SE 16:09:44 20° E 16:12:29 10° NE
YAOGAN 11 4.4 16:10:07 10° NNE 16:14:35 54° E 16:19:02 10° S
USA 276 2.6 16:12:59 10° SW 16:15:11 32° SSE 16:17:13 12° E
CZ-2C R/B 2.5 16:12:29 10° SSE 16:16:00 69° ENE 16:19:37 10° N
Cosmos 2263 Rocket 2.2 16:11:26 10° SSW 16:16:55 65° ESE 16:22:27 10° NNE
Cosmos 1437 Rocket 3.1 16:13:16 10° NNW 16:16:58 65° W 16:20:42 10° S
Cosmos 1844 Rocket 4.3 16:14:38 10° SE 16:17:43 15° E 16:20:21 11° ENE
Nadezhda 4 Rocket 4.3 16:15:03 10° SSE 16:20:47 43° E 16:26:31 10° NNE
CORIOLIS 4.1 16:15:37 10° SSE 16:20:53 63° ENE 16:26:13 10° N
ERS-2 2.7 16:19:39 10° S 16:22:29 47° WSW 16:25:20 10° NNW
USA 307 2.9 16:20:32 10° WNW 16:24:23 71° SSW 16:28:10 10° SE
Cosmos 2227 Rocket 3.1 16:19:46 10° SW 16:25:11 45° NW 16:30:38 10° NNE
Cosmos 44 4.4 16:21:55 10° NW 16:27:11 54° WSW 16:32:11 10° SSE
Meteor 1-20 Rocket 4.4 16:21:47 10° N 16:27:11 49° ENE 16:32:39 10° SSE
Cosmos 1140 Rocket 3.5 16:22:40 10° NNW 16:27:48 57° ENE 16:32:51 10° SE
YAOGAN 1 4.3 16:29:59 14° NE 16:29:59 14° NE 16:31:48 10° NNE
SAR-Lupe-2 4.0 16:26:11 10° S 16:29:43 65° WSW 16:33:19 10° NNW
Cosmos 1666 2.4 16:30:39 10° N 16:34:13 89° WSW 16:37:44 10° S
NOSS 8 (A) 4.5 16:33:26 10° SW 16:37:07 68° NW 16:39:23 16° NE
Cosmos 1603 3.8 16:32:12 10° NNW 16:37:50 57° ENE 16:43:22 10° SE
DMSP B5D2-2 4.0 16:33:25 10° NNE 16:38:39 81° ESE 16:43:52 10° SSW
Cosmos 1076 Rocket 4.3 16:37:10 10° NNW 16:41:26 56° W 16:45:40 10° S
Meteor 1-31 Rocket 2.5 16:39:14 10° SSE 16:42:55 82° ENE 16:46:40 10° NNW
CZ-4B R/B 4.5 16:45:00 18° NE 16:45:00 18° NE 16:47:09 10° NNE
USA 306 4.1 16:45:37 10° W 16:47:16 18° SW 16:48:50 10° S
SL-08 R/B 4.5 16:46:50 19° ENE 16:47:56 21° E 16:51:27 10° SE
SL-16 R/B 4.3 16:45:35 10° NW 16:50:28 30° WSW 16:55:20 10° SSW
ATLAS CENTAUR R/B 2.9 16:47:02 10° WNW 16:51:10 74° SW 16:59:16 10° SE
Cosmos 1602 4.0 16:49:22 10° NNW 16:53:05 67° W 16:56:47 10° S
RESURS DK-1 3.4 16:52:26 10° N 16:55:52 24° NE 16:56:12 24° NE
USA 305 3.3 16:52:20 10° WNW 16:56:06 53° SW 16:59:50 10° SE
CZ-4B R/B 3.4 16:53:48 10° SSE 16:58:49 68° ENE 17:03:44 10° N
Cosmos 1782 3.2 16:57:49 10° SSE 17:01:28 39° E 17:03:03 26° NE
Cosmos 1943 3.4 16:56:09 10° NNW 17:01:47 74° WSW 17:07:24 10° SSE
Cosmos 1812 Rocket 3.5 16:57:32 10° S 17:01:50 66° E 17:06:11 10° NNE
Helios 1A 3.0 16:58:42 15° NNE 17:02:04 53° E 17:06:07 10° S
ATLAS 2AS CENTAUR R/B 2.8 16:57:21 10° NW 17:04:10 52° NE 17:09:08 18° ESE
SMAP 3.9 17:01:05 10° S 17:05:37 53° W 17:10:12 10° NNW
NOAA 6 4.0 17:01:36 10° SSE 17:06:40 63° ENE 17:11:44 10° N
Cosmos 407 Rocket 3.5 17:07:58 10° NNW 17:13:10 85° WSW 17:18:17 10° SSE
Radarsat Rocket 3.9 17:07:24 10° SSE 17:13:11 72° ENE 17:19:20 10° NNW
Cosmos 2297 Rocket 4.4 17:10:22 10° WNW 17:14:02 17° NW 17:17:44 10° N
SOZ 4.5 17:13:15 10° W 17:15:31 61° N 17:16:20 42° NE
ISS -0.7 17:17:36 10° W 17:19:36 15° SW 17:21:36 10° S
ADEOS Rocket 4.5 17:22:48 16° NNE 17:22:48 16° NNE 17:24:40 10° N
Cosmos 2251 Rocket 3.8 17:15:35 10° NNW 17:20:55 71° WSW 17:26:15 10° SSE
Cosmos 220 Rocket 3.8 17:20:27 10° NNW 17:24:46 67° ENE 17:27:53 18° SE
Cosmos 2056 Rocket 3.9 17:22:38 10° S 17:27:41 43° ESE 17:28:45 38° ENE
Cosmos 1954 Rocket 4.0 17:22:34 10° NNW 17:27:47 58° ENE 17:31:28 19° SE
SME Rocket 4.5 17:22:02 10° SE 17:27:48 57° ENE 17:36:41 10° NNW
COSMOS 2455 4.1 17:23:43 10° SSE 17:27:03 21° ESE 17:27:03 21° ESE
Timation 2 Rocket 4.0 17:22:52 10° S 17:28:35 49° ESE 17:30:41 35° ENE
Cosmos 1844 4.0 17:23:20 10° S 17:28:49 46° ESE 17:30:24 37° ENE
CZ-4 R/B 4.3 17:26:18 10° SSE 17:30:22 88° WSW 17:34:30 10° NNW
Lacrosse 5 2.2 17:25:51 10° SSW 17:30:41 49° SE 17:31:43 42° E
Cosmos-2242 3.9 17:27:16 10° SSW 17:31:29 50° WNW 17:35:43 10° N
COSMO-SKYMED 1 2.4 17:29:30 31° NNE 17:31:32 72° ESE 17:35:52 10° S
Lacrosse 4 Rocket 3.1 17:29:30 10° NW 17:33:28 35° WSW 17:37:18 10° S
Cosmos 1833 Rocket 3.9 17:30:08 10° NNW 17:33:49 24° NNE 17:33:49 24° NNE
Cosmos 1553 Rocket 4.0 17:32:59 10° N 17:39:14 58° ENE 17:45:22 10° SSE
APEX 3.7 17:37:28 10° SW 17:39:57 38° WNW 17:39:57 38° WNW
USA 234 3.2 17:37:35 35° ENE 17:40:36 76° SE 17:47:09 10° SW
Meteor 2-2 Rocket 4.5 17:35:26 10° SSW 17:41:12 73° WNW 17:47:07 10° N
Cosmos 2221 2.8 17:37:45 10° S 17:41:02 47° SE 17:41:02 47° SE
Cosmos 2344 3.4 17:35:29 10° SW 17:43:01 87° SE 17:47:04 30° NE
Cosmos 1812 4.3 17:41:20 10° SW 17:44:39 32° WNW 17:47:41 12° N
Cosmos 1190 Rocket 4.1 17:39:55 10° NNW 17:45:16 79° WSW 17:50:32 10° SSE
Cosmos 1818 3.5 17:41:25 10° SW 17:46:51 83° NW 17:48:45 42° NNE
Cosmos 2026 Rocket 4.0 17:41:56 10° S 17:48:13 84° W 17:54:37 10° N
USA 276 4.5 17:47:14 10° W 17:48:03 18° W 17:48:03 18° W
Cosmos 1371 Rocket 3.9 17:46:42 10° S 17:51:53 68° ESE 17:52:32 61° ENE
NOAA 15 4.4 17:49:10 10° SSE 17:54:27 75° ENE 17:59:45 10° NNW
CZ-4B R/B 4.4 18:01:43 27° NNE 18:01:43 27° NNE 18:04:29 10° N
Cosmos 1844 Rocket 2.5 17:55:11 10° SSW 18:00:45 88° ESE 18:02:02 55° NNE
Cosmos 2263 Rocket 3.9 17:56:36 10° WSW 18:01:18 27° NW 18:05:03 14° N
Meteor 1-26 Rocket 4.1 17:55:56 10° S 18:01:30 87° E 18:04:18 32° NNE
Cosmos 1766 Rocket 3.7 17:59:34 10° NNW 18:03:55 69° W 18:08:12 10° S
YAOGAN 1 3.8 18:07:03 32° NNW 18:07:03 32° NNW 18:09:24 10° NNW
Cosmos 1092 Rocket 4.4 17:59:44 10° SSW 18:05:48 62° WNW 18:11:55 10° N
Cosmos 1933 4.3 18:03:17 10° SSW 18:07:07 44° WNW 18:07:55 39° NW
Cosmos 1420 Rocket 3.9 18:02:36 10° SSW 18:07:51 87° WNW 18:08:27 71° NNE
ADEOS 4.1 18:05:12 10° S 18:10:20 57° WSW 18:15:30 10° NNW
Cosmos 2082 Rocket 4.2 18:08:06 10° N 18:09:22 14° N 18:09:22 14° N
Cosmos 1624 Rocket 3.9 18:10:27 10° SSW 18:15:39 83° WNW 18:15:39 83° WNW
Cosmos 1417 Rocket 4.3 18:17:22 10° N 18:23:42 82° E 18:24:06 77° SE
SL-08 R/B 3.9 18:25:44 50° WNW 18:25:57 51° WNW 18:30:26 10° SW
RESURS DK-1 4.3 18:29:56 10° NW 18:31:56 26° NW 18:31:56 26° NW
BREEZE-M DEB 4.5 18:29:38 10° WSW 18:49:04 75° SSE 18:49:10 75° SSE
ATLAS 2AS CENTAUR R/B 3.4 18:48:34 10° NW 18:55:04 47° WSW 18:56:38 40° SSW
COSMOS 2455 4.4 19:07:33 10° SW 19:10:14 28° SW 19:10:14 28° SW
Lacrosse 5 3.9 19:08:46 10° W 19:10:56 25° W 19:10:56 25° W
USA 234 4.0 19:24:56 46° WNW 19:24:56 46° WNW 19:29:49 10° W
